Location: Bamazo
(6.7448°N, 10.8189°W)
Time: 01:30:07
(UTC+00:00)

NOAA 15 - Pass Details

Date: 18 September 2020
Orbit: 798 x 812 km, 98.7° (Epoch: 21 October)

Event Time Altitude Azimuth Distance (km) Brightness Sun altitude
Rises 19:44:12 0° 165° (SSE) 3,297 7.6 -16.5°
Reaches altitude 10° 19:46:32 10° 164° (SSE) 2,366 6.8 -17.0°
Maximum altitude 19:51:45 81° 77° (ENE) 810 4.5 -18.3°
Drops below altitude 10° 19:56:59 10° 351° (N) 2,365 7.2 -19.6°
Sets 19:59:18 0° 350° (N) 3,295 8.0 -20.2°
